Home   Weather   Innsbruck   Past weeks

Flag for Austria Past Weather in Innsbruck, Tyrol, Austria — Yesterday and Last 2 Weeks

Now
50 °F

Cool.


Feels Like: N/A
Forecast: 52 / 75 °F
Wind: N/A

Location: Innsbruck-Flughafen

Current Time: Sep 28, 2016 at 3:53:20 AM

Latest Report: Sep 28, 2016 at 3:00 AM


Visibility: 12 mi

Pressure: 30.45 "Hg (28.42 "Hg at 570m altitude)

Humidity: 93%

Dew Point: 48 °F

Location of InnsbruckLocation

Past Weather in Innsbruck — Graph

°F

Innsbruck Temperature Yesterday

Maximum temperature yesterday: 71 °F (at 4:00 PM)
Minimum temperature yesterday: 45 °F (at 7:00 AM)
Average temperature yesterday: 57 °F

High & Low Weather Summary for the Past Weeks

 TemperatureHumidityPressure
High83 °F (Sep 14, 4:00 PM)99% (Sep 18, 5:00 AM)30.44 "Hg (Sep 18, 5:00 AM)
Low45 °F (Sep 23, 7:00 AM)33% (Sep 14, 5:00 PM)29.53 "Hg (Sep 18, 5:00 AM)
Average59 °F76%30.06 "Hg
* Reported Sep 13 2:00 AM — Sep 28 2:00 AM, Innsbruck, Weather by CustomWeather, © 2016

Note: Actual official high and low records may vary slightly from our data, if they occured in-between our weather recording intervals... More about our weather records

Advertising

Innsbruck Weather History for the Previous 24 Hours

Scroll right to see more
 ConditionsComfort  
Time TempWeatherWind HumidityBarometerVisibility
2:00 AM
Wed, Sep 28
50 °FCool.N/A92%30.44 "Hg10 mi
1:00 AM52 °FCool.N/A89%30.43 "Hg11 mi
12:00 AM55 °FPassing clouds.N/A77%30.40 "Hg22 mi
11:00 PM
Tue, Sep 27
56 °FPassing clouds.N/A81%30.39 "Hg25 mi
10:00 PM58 °FPassing clouds.N/A80%30.37 "Hg17 mi
8:00 PM61 °FPassing clouds.N/A69%30.30 "Hg31 mi
7:00 PM65 °FPassing clouds.N/A62%30.26 "Hg28 mi
6:00 PM69 °FPassing clouds.5 mph50%30.21 "Hg22 mi
5:00 PM71 °FPassing clouds.N/A42%30.19 "Hg19 mi
4:00 PM71 °FScattered clouds.N/A46%30.19 "Hg22 mi
3:00 PM69 °FScattered clouds.N/A48%30.20 "Hg22 mi
2:00 PM67 °FScattered clouds.5 mph50%30.22 "Hg19 mi
1:00 PM64 °FScattered clouds.5 mph58%30.24 "Hg25 mi
12:00 PM62 °FScattered clouds.N/A61%30.26 "Hg25 mi
11:00 AM58 °FScattered clouds.N/A71%30.28 "Hg22 mi
10:00 AM54 °FPartly sunny.N/A77%30.30 "Hg15 mi
9:00 AM51 °FPartly sunny.N/A88%30.30 "Hg8 mi
8:00 AM47 °FPartly sunny.N/A92%30.30 "Hg11 mi
7:00 AM45 °FPassing clouds.N/A95%30.29 "Hg11 mi
6:00 AM46 °FPassing clouds.N/A93%30.27 "Hg7 mi
5:00 AM46 °FCool.N/A94%30.27 "Hg10 mi
4:00 AM47 °FCool.N/A91%30.26 "Hg12 mi
3:00 AM49 °FPassing clouds.N/A90%30.24 "Hg18 mi
Weather by CustomWeather, © 2016

See weather overviewHow to use our weather pages